ENDUROSAT ONE (43551 NORAD) Tracking and Keplerian Element Data

This shows tracking and keplerian element data for the satellite.

Feedback or suggestion? Click here.




ElementValue
Catalog43551
NameENDUROSAT ONE
Epoch Orbit4911
Epoch Day144.36191168
Epoch Year2019
RAAN108.6465
Inclination51.6375
Eccentricity0.0006995
Argument of Perigee53.3319
Mean Anonmoly306.8317
Mean Motion15.62226414
Decay Rate0.00010914
L11 43551U 98067NZ 19144.36191168 .00010914 00000-0 12719-3 0 9990
L22 43551 51.6375 108.6465 0006995 53.3319 306.8317 15.62226414 49116

Live tracking and technical data element details for ENDUROSAT ONE (NORAD 43551). ENDUROSAT ONE can be tracked NOW for your location showing map with azimuth and elevation plus other details from your city location.

Track the satellite on the map from your city or location and see movement details for azimuth, elevation, latitude, longitude, range, height, and movement on the map or in text.







IsCatalogInMostPopularTable: catalog: 43551, numindb: 165
Update: records affected: 1



GetName: 43551 ENDUROSAT ONE

Hit Count: updated at: Fri, 24 May 2019 21:03:44 GMT